Voltar ao catálogo

SL-14 DEB

AtivoPO
NORAD 26000·DEBRIS·🇷🇺 Russia

Lançado Sep 28, 1991 de Plesetsk Cosmodrome

Loading…

Próximas Passagens (próximas 24 horas)

TLE

AtualizadoSource: Space-Track

Época: Sep 14, 2026, 11:26 UTC

1 26000U 91068K   26257.47671100  .00000059  00000-0  34081-3 0  9993
2 26000  82.7170 256.1331 0040531 288.3990 226.8400 12.45467020214851

Acompanhe SL-14 DEB em tempo real com AllMySat

Download on the App Store